User: anonymous   Login
Location: Fort Hays State University
(38.8712°N, 99.3432°W)
Time: 13:55:33
(UTC-06:00)
Language:

ALOS - Orbit

View from above orbital plane
View from above orbital plane
View from above satellite
View from above satellite

Ground track
Ground track

The orbit data is extracted from the following two-line orbital elements,

1 28931U 06002A   17059.95885014 +.00000107 +00000-0 +29843-4 0  9991
2 28931 097.8556 092.6674 0000874 048.5536 311.5742 14.62317237591643
Epoch (UTC): 28 February 2017 23:00:44
Eccentricity: 0.0000874
inclination: 97.8556°
perigee height: 685 km
apogee height: 686 km
right ascension of ascending node: 92.6674°
argument of perigee: 48.5536°
revolutions per day: 14.62317237
mean anomaly at epoch: 311.5742°
orbit number at epoch: 59164

The dashed part of the orbit path shows where the satellite is in the earth's shadow,  

DLR